Weather History for Glencoe, MN

Change the Weather History Date:

Wednesday, April 24, 2013

  Actual Average (KHCD) Record (KHCD)
Temperature  
Mean Temperature 38 °F -  
Max Temperature 48 °F 60 °F 86 °F (1962)
Min Temperature 29 °F 37 °F 23 °F (1967)
Degree Days  
Heating Degree Days 26    
Moisture  
Dew Point 28 °F    
Average Humidity 70    
Maximum Humidity 87    
Minimum Humidity 41    
Precipitation  
Precipitation 0.01 in - - ()
Sea Level Pressure  
Sea Level Pressure 29.98 in    
Wind  
Wind Speed 8 mph (SW)    
Max Wind Speed 22 mph    
Max Gust Speed 29 mph    
Visibility 10 miles    
Events Rain , Snow    
Averages and records for this station are not official NWS values.
T = Trace of Precipitation, MM = Missing Value Source: NWS Daily Summary

Daily Weather History Graph

Daily Weather History Graph

Search for Another Location

Airport:

Trip Planner

Search our weather history database for the weather conditions in past years. The results will help you decide how hot, cold, wet, or windy it might be!

Date:

Astronomy

Apr. 24, 2013 Rise Set
Actual Time 6:16 AM CDT 8:13 PM CDT
Civil Twilight 5:45 AM CDT 8:44 PM CDT
Nautical Twilight 5:06 AM CDT 9:23 PM CDT
Astronomical Twilight 4:24 AM CDT 10:05 PM CDT
Moon 7:16 PM CDT (4/24) 5:23 AM CDT (4/24)
Length of Visible Light 14h 59m
Length of Day
13h 56m
Waxing Gibbous, 98% of the Moon is Illuminated
Apr 24
Waxing Gibbous
Apr 25
Full
May 2
Last Quarter
May 9
New
May 17
First Quarter

Hourly Weather History & Observations

Time (CDT) Temp. Windchill Dew Point Humidity Pressure Visibility Wind Dir Wind Speed Gust Speed Precip Events Conditions
12:14 AM 32.0 °F 25.6 °F 25.9 °F 78% 30.07 in 10.0 mi West 6.9 mph - N/A   Clear
12:35 AM 32.0 °F 26.4 °F 25.7 °F 78% 30.07 in 10.0 mi West 5.8 mph - N/A   Clear
12:54 AM 31.6 °F 28.3 °F 25.2 °F 77% 30.07 in 10.0 mi West 3.5 mph - N/A   Clear
1:14 AM 31.1 °F 27.7 °F 25.0 °F 78% 30.06 in 10.0 mi WSW 3.5 mph - N/A   Clear
1:35 AM 31.1 °F - 25.5 °F 80% 30.06 in 10.0 mi Calm Calm - N/A   Clear
1:54 AM 30.9 °F - 25.9 °F 82% 30.06 in 10.0 mi Calm Calm - N/A   Clear
2:15 AM 30.4 °F 26.9 °F 26.2 °F 85% 30.06 in 10.0 mi SSW 3.5 mph - N/A   Clear
2:35 AM 30.6 °F 27.1 °F 26.2 °F 84% 30.05 in 10.0 mi South 3.5 mph - N/A   Clear
2:55 AM 29.8 °F 24.9 °F 26.1 °F 86% 30.05 in 10.0 mi SSW 4.6 mph - N/A   Clear
3:14 AM 30.6 °F 25.8 °F 26.1 °F 83% 30.04 in 10.0 mi SSW 4.6 mph - N/A   Clear
3:35 AM 30.4 °F 26.9 °F 25.7 °F 83% 30.04 in 10.0 mi SSW 3.5 mph - N/A   Clear
3:55 AM 30.0 °F 25.2 °F 25.5 °F 83% 30.04 in 10.0 mi South 4.6 mph - N/A   Clear
4:14 AM 30.0 °F 25.2 °F 25.5 °F 83% 30.04 in 10.0 mi SSW 4.6 mph - N/A   Clear
4:35 AM 30.0 °F 24.1 °F 25.7 °F 84% 30.03 in 10.0 mi SSW 5.8 mph - N/A   Clear
5:15 AM 29.8 °F 23.0 °F 25.7 °F 85% 30.03 in 10.0 mi SSW 6.9 mph - N/A   Clear
5:35 AM 29.8 °F 23.9 °F 25.7 °F 85% 30.02 in 10.0 mi SSW 5.8 mph - N/A   Clear
5:55 AM 30.0 °F 23.2 °F 25.2 °F 82% 30.02 in 10.0 mi SSW 6.9 mph - N/A   Clear
6:15 AM 29.8 °F 24.9 °F 24.8 °F 81% 30.01 in 10.0 mi SW 4.6 mph - N/A   Clear
6:34 AM 30.0 °F 24.1 °F 24.6 °F 80% 30.01 in 10.0 mi SSW 5.8 mph - N/A   Clear
6:55 AM 30.2 °F 25.4 °F 24.4 °F 79% 30.01 in 10.0 mi SSW 4.6 mph - N/A   Clear
7:14 AM 30.7 °F 24.9 °F 24.8 °F 79% 30.01 in 10.0 mi SW 5.8 mph - N/A   Clear
7:35 AM 31.8 °F 27.3 °F 25.2 °F 76% 30.01 in 10.0 mi SSW 4.6 mph - N/A   Clear
7:55 AM 32.2 °F 27.7 °F 25.5 °F 76% 30.01 in 10.0 mi SSW 4.6 mph - N/A   Clear
8:14 AM 33.1 °F 28.7 °F 25.7 °F 74% 30.01 in 10.0 mi SW 4.6 mph - N/A   Clear
8:35 AM 34.2 °F 29.0 °F 26.4 °F 73% 30.00 in 10.0 mi SW 5.8 mph - N/A   Clear
8:55 AM 35.6 °F 29.9 °F 26.2 °F 69% 30.00 in 10.0 mi SW 6.9 mph - N/A   Clear
9:15 AM 36.7 °F 30.5 °F 27.1 °F 68% 30.00 in 10.0 mi SW 8.1 mph - N/A   Clear
9:34 AM 37.9 °F 31.5 °F 28.0 °F 68% 29.99 in 10.0 mi WSW 9.2 mph - N/A   Clear
9:55 AM 39.4 °F 33.8 °F 28.4 °F 65% 29.99 in 10.0 mi SW 8.1 mph - N/A   Clear
10:14 AM 41.0 °F 34.7 °F 28.9 °F 62% 29.99 in 10.0 mi SW 10.4 mph - N/A   Clear
10:54 AM 42.8 °F 36.6 °F 27.7 °F 55% 29.98 in 10.0 mi SW 11.5 mph 19.6 mph N/A   Clear
11:15 AM 44.1 °F 38.1 °F 29.1 °F 56% 29.98 in 10.0 mi SW 11.5 mph 18.4 mph N/A   Clear
11:34 AM 45.1 °F 38.8 °F 28.2 °F 52% 29.97 in 10.0 mi SW 13.8 mph 23.0 mph N/A   Clear
11:54 AM 45.7 °F 39.1 °F 27.5 °F 49% 29.97 in 10.0 mi SW 15.0 mph 21.9 mph N/A   Clear
12:15 PM 46.6 °F - 25.5 °F 44% 29.97 in 10.0 mi SW 16.1 mph 25.3 mph N/A   Clear
12:34 PM 46.9 °F - 25.3 °F 43% 29.96 in 10.0 mi SW 15.0 mph 26.5 mph N/A   Clear
12:55 PM 47.7 °F - 25.7 °F 42% 29.95 in 10.0 mi SW 16.1 mph 25.3 mph N/A   Clear
1:14 PM 47.8 °F - 25.9 °F 42% 29.94 in 10.0 mi SSW 15.0 mph 23.0 mph N/A   Clear
1:35 PM 48.4 °F - 27.3 °F 44% 29.94 in 10.0 mi SW 12.7 mph 24.2 mph N/A   Mostly Cloudy
1:55 PM 48.2 °F - 25.2 °F 41% 29.93 in 10.0 mi SSW 21.9 mph 27.6 mph N/A   Overcast
2:15 PM 48.2 °F - 26.1 °F 42% 29.93 in 10.0 mi SSW 16.1 mph 25.3 mph N/A   Overcast
2:34 PM 48.0 °F - 25.7 °F 42% 29.93 in 10.0 mi SSW 19.6 mph 28.8 mph N/A   Overcast
2:54 PM 46.9 °F - 24.3 °F 41% 29.93 in 10.0 mi SSW 18.4 mph 26.5 mph N/A   Overcast
3:15 PM 46.8 °F - 24.1 °F 41% 29.93 in 10.0 mi SSW 15.0 mph 25.3 mph N/A   Overcast
3:34 PM 47.3 °F - 25.3 °F 42% 29.92 in 10.0 mi SW 13.8 mph 19.6 mph N/A   Mostly Cloudy
3:55 PM 46.8 °F - 24.1 °F 41% 29.92 in 10.0 mi SW 17.3 mph 26.5 mph N/A   Overcast
4:14 PM 46.4 °F 41.5 °F 25.2 °F 43% 29.92 in 10.0 mi WSW 10.4 mph 18.4 mph N/A   Overcast
4:35 PM 45.7 °F 41.0 °F 29.1 °F 52% 29.93 in 10.0 mi WSW 9.2 mph 19.6 mph N/A   Overcast
4:54 PM 44.6 °F 38.1 °F 30.0 °F 57% 29.93 in 10.0 mi WSW 13.8 mph 23.0 mph N/A   Overcast
5:15 PM 44.2 °F 38.0 °F 30.6 °F 59% 29.92 in 10.0 mi West 12.7 mph 17.3 mph N/A   Overcast
5:34 PM 41.2 °F 32.1 °F 32.7 °F 72% 29.92 in 10.0 mi WNW 19.6 mph 24.2 mph N/A   Light Drizzle
5:54 PM 37.6 °F 28.1 °F 32.5 °F 82% 29.93 in 5.0 mi WNW 17.3 mph 27.6 mph N/A Rain Light Rain
6:15 PM 36.9 °F 29.1 °F 32.9 °F 86% 29.94 in 7.0 mi WNW 11.5 mph - N/A Rain Light Rain
6:34 PM 37.6 °F 31.0 °F 33.6 °F 86% 29.93 in 10.0 mi NW 9.2 mph - 0.01 in Rain Light Rain
6:55 PM 37.4 °F 32.1 °F 33.1 °F 84% 29.92 in 10.0 mi NW 6.9 mph - 0.01 in Rain Light Rain
7:14 PM 37.8 °F 33.3 °F 33.3 °F 84% 29.93 in 10.0 mi West 5.8 mph - N/A   Scattered Clouds
7:35 PM 37.8 °F 32.5 °F 32.9 °F 83% 29.94 in 10.0 mi West 6.9 mph - N/A   Scattered Clouds
7:55 PM 37.6 °F 31.6 °F 32.9 °F 83% 29.95 in 10.0 mi West 8.1 mph - N/A   Mostly Cloudy
8:14 PM 37.4 °F 33.8 °F 32.9 °F 84% 29.94 in 10.0 mi WSW 4.6 mph - N/A   Mostly Cloudy
8:35 PM 37.4 °F 33.8 °F 32.9 °F 84% 29.95 in 10.0 mi WSW 4.6 mph - N/A   Scattered Clouds
8:54 PM 37.4 °F 32.8 °F 32.5 °F 83% 29.95 in 10.0 mi SW 5.8 mph - N/A   Clear
9:55 PM 37.4 °F 32.1 °F 32.0 °F 81% 29.97 in 10.0 mi WSW 6.9 mph - N/A   Overcast
10:14 PM 37.4 °F 26.9 °F 31.8 °F 80% 29.98 in 10.0 mi West 20.7 mph 26.5 mph N/A   Overcast
10:35 PM 36.3 °F 27.1 °F 32.0 °F 84% 29.99 in 10.0 mi West 15.0 mph - N/A   Overcast
10:55 PM 35.6 °F 26.6 °F 32.0 °F 87% 30.00 in 10.0 mi West 13.8 mph 21.9 mph N/A   Overcast
11:14 PM 35.2 °F 24.7 °F 31.5 °F 86% 30.00 in 10.0 mi West 18.4 mph 24.2 mph N/A   Overcast
11:35 PM 34.2 °F 23.6 °F 30.7 °F 87% 30.00 in 4.0 mi West 17.3 mph 21.9 mph N/A Snow Light Snow
11:55 PM 33.4 °F 22.7 °F 29.8 °F 87% 30.00 in 3.0 mi West 17.3 mph 24.2 mph N/A Snow Light Snow